This is the latest recevied weather packets stored in our database for station/object KQ4UWH. If no packets are shown the sender has not sent any weather packets the latest 10 day(s).
| Time | Temp. | Humidity | Pressure | Rain* | Wind** | Luminosity | Snow |
|---|---|---|---|---|---|---|---|
| 1777755707 | 20° C | 31% | 1239.7 hPa | 0 mm | - | 428 W/m² | - |
| 1777755404 | 20° C | 33% | 1239.7 hPa | 0 mm | - | 489 W/m² | - |
| 1777755101 | 20° C | 33% | 1239.7 hPa | 0 mm | - | 504 W/m² | - |
| 1777754798 | 20° C | 32% | 1239.7 hPa | 0 mm | - | 520 W/m² | - |
| 1777754495 | 20° C | 34% | 1239.7 hPa | 0 mm | - | 527 W/m² | - |
| 1777754192 | 20.56° C | 34% | 1239.7 hPa | 0 mm | - | 539 W/m² | - |
| 1777753890 | 20.56° C | 34% | 1239.7 hPa | 0 mm | - | 552 W/m² | - |
| 1777753585 | 20° C | 35% | 1239.7 hPa | 0 mm | - | 561 W/m² | - |
| 1777753283 | 20° C | 35% | 1239.7 hPa | 0 mm | - | 575 W/m² | - |
| 1777752979 | 20.56° C | 32% | 1239.7 hPa | 0 mm | - | 588 W/m² | - |
| 1777752676 | 20.56° C | 33% | 1239.7 hPa | 0 mm | - | 592 W/m² | - |
| 1777752372 | 20° C | 33% | 1239.7 hPa | 0 mm | - | 607 W/m² | - |
| 1777752070 | 20.56° C | 33% | 1239.7 hPa | 0 mm | - | 619 W/m² | - |
| 1777751768 | 20° C | 37% | 1239.7 hPa | 0 mm | - | 633 W/m² | - |
| 1777751463 | 20.56° C | 34% | 1239.7 hPa | 0 mm | - | 638 W/m² | - |
| 1777751160 | 20.56° C | 34% | 1239.7 hPa | 0 mm | - | 644 W/m² | - |
| 1777750856 | 20° C | 34% | 1239.7 hPa | 0 mm | - | 648 W/m² | - |
| 1777750554 | 20° C | 36% | 1239.7 hPa | 0 mm | - | 663 W/m² | - |
| 1777750250 | 20.56° C | 33% | 1239.7 hPa | 0 mm | - | 671 W/m² | - |
| 1777749946 | 20.56° C | 33% | 1239.7 hPa | 0 mm | - | 666 W/m² | - |
| 1777749644 | 21.11° C | 36% | 1239.7 hPa | 0 mm | - | 675 W/m² | - |
| 1777749340 | 20.56° C | 39% | 1239.7 hPa | 0 mm | - | 679 W/m² | - |
| 1777749038 | 20.56° C | 40% | 1239.7 hPa | 0 mm | - | 683 W/m² | - |
| 1777748735 | 20° C | 39% | 1239.7 hPa | 0 mm | - | 690 W/m² | - |
| 1777748432 | 20° C | 40% | 1239.7 hPa | 0 mm | - | 710 W/m² | - |
* Rain latest hour (hover to see other rain measurements)
** Current wind speed in m/s (hover to see current wind gust speed)